Flag for Kazakhstan Weather past 2 weeks in Aqtobe, Kazakhstan

Now
9 °F

Light snow. Low clouds.


Feels Like: 2 °F
Forecast: 17 / 28 °F
Wind: 3 mph from Southeast

Location: Aktjubinsk

Current Time: Mar 5, 2015 at 8:13:38 AM

Latest Report: Mar 5, 2015 at 7:00 AM


Visibility: N/A

Pressure: 30.15 "Hg

Humidity: 92%

Dew point: 7 °F

Location of AqtobeLocation

Historic Weather in Aqtobe — Graph

°F

Aqtobe temperature yesterday

Maximum temperature yesterday: 21 °F (at 3:00 PM)
Minimum temperature yesterday: 0 °F (at 5:00 AM)
Average temperature yesterday: 8 °F

Past Weeks' High & Low Weather Summary

 TemperatureHumidityPressure
High32 °F (Feb 25, 5:00 PM)100% (Feb 23, 1:30 AM)30.74 "Hg (Feb 23, 1:30 AM)
Low-13 °F (Feb 21, 6:00 AM)63% (Mar 3, 1:30 PM)29.95 "Hg (Feb 19, 9:30 AM)
Average10 °F85%30.36 "Hg
* Reported Feb 18 7:00 AM — Mar 5 7:00 AM, Aqtobe, Weather by CustomWeather, © 2015

Note: Actual official high and low records may vary slightly from our data, if they occured in-between our weather recording intervals... More about our weather records

Advertising

Aqtobe weather history for previous 24 hours

 ConditionsComfort  
Time TempWeatherWind HumidityBarometerVisibility
7:00 AM
Thu, Mar 5
9 °FLight snow. Low clouds.3 mph92%30.15 "HgN/A
6:30 AM9 °FLight snow. Low clouds.3 mph92%30.12 "HgN/A
6:00 AM9 °FLight snow. Low clouds.1 mph92%30.12 "HgN/A
5:30 AM9 °FLight snow. Low clouds.1 mph85%30.12 "HgN/A
5:00 AM9 °FLight snow. Low clouds.1 mph92%30.12 "HgN/A
4:30 AM9 °FLight snow. Low clouds.1 mph85%30.12 "HgN/A
4:00 AM9 °FLight snow. Low clouds.1 mph92%30.12 "HgN/A
3:30 AM7 °FLight snow. Low clouds.1 mph92%30.12 "HgN/A
2:00 AM7 °FLight snow. Low clouds.1 mph85%30.12 "HgN/A
1:30 AM7 °FPassing clouds.1 mph85%30.12 "HgN/A
1:00 AM9 °FPassing clouds.3 mph85%30.09 "HgN/A
12:30 AM7 °FPassing clouds.3 mph85%30.12 "HgN/A
12:00 AM5 °FPassing clouds.1 mph85%30.12 "HgN/A
11:30 PM
Wed, Mar 4
7 °FClear.6 mph85%30.12 "Hg10 mi
11:00 PM7 °FClear.3 mph85%30.12 "Hg10 mi
10:30 PM7 °FClear.3 mph85%30.12 "Hg10 mi
10:00 PM7 °FClear.6 mph85%30.12 "Hg10 mi
9:30 PM7 °FClear.3 mph85%30.12 "Hg10 mi
9:00 PM9 °FClear.8 mph78%30.09 "Hg10 mi
8:30 PM9 °FClear.8 mph78%30.12 "Hg10 mi
8:00 PM10 °FClear.8 mph79%30.09 "Hg10 mi
7:30 PM10 °FClear.10 mph79%30.09 "HgN/A
7:00 PM12 °FClear.8 mph79%30.09 "Hg10 mi
6:30 PM14 °FSunny.8 mph73%30.07 "Hg10 mi
6:00 PM16 °FSunny.8 mph73%30.07 "Hg10 mi
5:30 PM18 °FSunny.8 mph73%30.07 "Hg10 mi
5:00 PM19 °FSunny.8 mph73%30.07 "Hg10 mi
4:30 PM19 °FSunny.6 mph73%30.07 "Hg10 mi
4:00 PM19 °FSunny.3 mph73%30.07 "Hg10 mi
3:30 PM19 °FSunny.3 mph73%30.07 "Hg10 mi
3:00 PM21 °FPassing clouds.3 mph68%30.07 "HgN/A
2:30 PM16 °FPassing clouds.6 mph73%30.07 "HgN/A
2:00 PM16 °FSunny.3 mph73%30.07 "Hg10 mi
1:30 PM16 °FSunny.6 mph67%30.07 "Hg10 mi
1:00 PM14 °FSunny.8 mph73%30.07 "Hg10 mi
12:30 PM12 °FSunny.10 mph73%30.07 "Hg10 mi
12:00 PM10 °FSunny.10 mph72%30.07 "Hg10 mi
11:30 AM9 °FSunny.13 mph78%30.07 "Hg10 mi
11:00 AM7 °FClear.8 mph78%30.07 "HgN/A
10:30 AM5 °FClear.6 mph78%30.09 "Hg4 mi
10:00 AM3 °FClear.6 mph78%30.09 "Hg5 mi
9:30 AM1 °FClear.3 mph78%30.09 "Hg6 mi
9:00 AM0 °FSunny.8 mph84%30.09 "Hg10 mi
8:30 AM0 °FSunny.6 mph84%30.09 "Hg10 mi
8:00 AM0 °FSunny.8 mph84%30.09 "Hg10 mi
Weather by CustomWeather, © 2015

See weather overviewHow to use our weather pages